{"data":{"norad_id":43930,"epoch":"2026-09-20T02:47:07.118304Z","epoch_age_seconds":48585,"freshness":"FRESH","line1":"1 43930U 19002J   26263.11605461  .00000048  00000+0  36296-5 0  9996","line2":"2 43930  86.6097 313.8700 0002505  93.7345 266.4159 14.72251154413229","mean_motion":14.72251154,"eccentricity":0.0002505,"inclination_deg":86.6097,"raan_deg":313.87,"arg_perigee_deg":93.7345,"mean_anomaly_deg":266.4159,"bstar":3.6296e-6,"rev_number":41322,"period_min":97.809398626561,"perigee_km":652.12917023275,"apogee_km":655.65221610703,"semimajor_km":7032.0276931699,"source":"CELESTRAK","updated_at":"2026-09-20T09:00:36.356586Z"}}